ATLAS 5 CENTAUR DEB, 45472

Orbit data source: Space-Track

ATLAS 5 CENTAUR DEB, 45472 is space debris in HEO originally from a launch on Wed, 17 Oct 2018 UTC launched from the Air Force Eastern Test Range (AFETR). Debris objects in space refer to the collection of defunct objects orbiting the Earth. Examples of debris include non-operational satellites, rocket bodies, and fragments generated from explosions, collisions, or faulty payload assembly.

Loading next visibility...
Identifier
45472, 2018-079BU
Orbit
HEO
Country
Flag of USUS
Related business
Flag of USUnited Launch Alliance/Lockheed Martin (US)
Manufacturer
ULA Decatur
Mission
Spacecraft
Bus & Motor
Unknown
Mass
Unknown
Launch date (UTC)
2018-10-17 (7 years ago)
Launch vehicle
Unknown
Launch site
Air Force Eastern Test Range (AFETR)
Object type
Payload
Rocket body
Debris
Shape & HBR
Unknown shape, 1.1 m
Radar Cross Section
RCS unknown

Expand to show TLE details & history
Last TLE update: 2 days ago

TLE from 2 days ago
0 ATLAS 5 CENTAUR DEB
1 45472U 18079BU  26032.81036073 -.00000195  00000-0  00000+0 0  9993
2 45472  13.2724  41.4760 4780696 303.0716  19.5680  1.81830590 30169
Epoch: 2026-02-01T19:26Z
TLE epoch observation values (Epoch: 2026-02-01T19:26:55.167Z)
Latitude
0.00001°
Longitude
-22.194°
Altitude
10,975.282 km
Speed
5.646 km/s
True Right ascension
02h 46m 12s
True Declination
0° 00' 00"
Sunlit
Object was in daylight at epoch
Visualization orbit readout
Latitude
Unknown
Longitude
Unknown
Altitude
Unknown
Speed
Unknown
Apparent Right ascension
Unknown
Apparent Declination
Unknown
Sunlit
N/A
Visualization observer readout
Local Sidereal Time
03:12:33
Azimuth
Unknown
Elevation
Unknown
Doppler factor
Unknown
Orbital elements
Apogee altitude
35,535.115 km
Perigee altitude
8,422.114 km
Semi-major axis
28,356.752 km
Eccentricity
0.47807
Inclination
13.2724°
RAAN
41.476°
Arg. of periapsis
303.0716°
True anomaly
56.56021°
Mean anomaly
19.568°
Eccentric anomaly
35.45783°
Mean motion
0.45453 °/min
Orbital period
792.03 mins
BSTAR
0
Loading maneuver chart data...
Computing Atmospheric mass density...

Documentation

Showing up to 5 results
|